Location: Poughquag
(41.6090°N, 73.6820°W)
Time: 09:42:10
(UTC-05:00)

SR - Pass Details

Date: 09 December 2023
Orbit: 574 x 868 km, 66.7° (Epoch: 25 February)

Event Time Altitude Azimuth Distance (km) Brightness Sun altitude
Rises 16:53:59 0° 340° (NNW) 3,460 ? -5.7°
Reaches altitude 10° 16:58:10 10° 8° (N) 2,499 ? -6.4°
Maximum altitude 17:00:39 13° 33° (NNE) 2,284 ? -6.8°
Drops below altitude 10° 17:03:06 10° 59° (ENE) 2,447 ? -7.3°
Enters shadow 17:03:42 - 65° (ENE) 2,541 ? -7.4°
Sets 17:07:05 0° 87° (E) 3,320 - -7.9°
